Terminal Aerodrome Forecast
Issued by NWS Medford, OR

Home | Current Version | Previous Version | Text Only | Print | Product List | Glossary On
Versions: 1 2 3 4 5 6 7 8 9 10 11 12 13 14 15 16 17 18 19
000
FTUS46 KMFR 220911 AAB
TAFMFR
TAF AMD
KMFR 220911Z 2209/2306 15003KT P6SM VCSH SCT040 BKN050 OVC100
     FM221100 00000KT 5SM -SHRA BR FEW003 BKN020 OVC035
     FM221300 00000KT 1/2SM FG OVC002=

USA.gov is the U.S. government's official web portal to all federal, state and local government web resources and services.